FW0864 Weather Reports


Display with metric or nautical units.
time (UTC)temp
F
wind
direction
speed
MPH
gust
MPH
rain 1hr
in
rain 24hr
in
rain mn
in
humidity
%
barometer
mb
20260905093536 63 323 5.0 9.0 0.00 0.00 0.00 67 1010.6
20260905093042 63 299 3.0 8.0 0.00 0.00 0.00 67 1010.7
20260905092537 63 321 3.0 9.0 0.00 0.00 0.00 68 1010.6
20260905092036 63 325 4.0 11.0 0.00 0.00 0.00 67 1010.7
20260905091533 64 359 4.0 11.0 0.00 0.00 0.00 67 1010.6
20260905091035 64 323 3.0 9.0 0.00 0.00 0.00 67 1010.7
20260905090531 64 335 3.0 8.0 0.00 0.00 0.00 67 1010.8
20260905090031 64 323 2.0 8.0 0.00 0.00 0.00 67 1010.9
20260905085533 64 330 3.0 8.0 0.00 0.00 0.00 66 1010.9
20260905085033 64 318 3.0 9.0 0.00 0.00 0.00 66 1010.8
20260905084537 64 354 3.0 9.0 0.00 0.00 0.00 66 1010.9
20260905084031 64 320 2.0 10.0 0.00 0.00 0.00 66 1010.9
20260905083532 64 341 3.0 10.0 0.00 0.00 0.00 66 1011.0
20260905083029 64 8 3.0 12.0 0.00 0.00 0.00 65 1010.9
20260905082528 65 359 5.0 12.0 0.00 0.00 0.00 65 1010.9
20260905082028 65 312 3.0 8.0 0.00 0.00 0.00 65 1010.9
20260905081527 65 341 3.0 10.0 0.00 0.00 0.00 64 1011.0
20260905081026 65 320 4.0 10.0 0.00 0.00 0.00 64 1011.0
20260905080525 65 297 5.0 10.0 0.00 0.00 0.00 64 1010.9
20260905080040 65 341 2.0 9.0 0.00 0.00 0.00 63 1010.9
20260905075524 66 315 4.0 11.0 0.00 0.00 0.00 63 1011.0
20260905075027 66 4 4.0 11.0 0.00 0.00 0.00 63 1010.9
20260905074523 66 337 4.0 11.0 0.00 0.00 0.00 63 1010.9
20260905074023 66 337 5.0 11.0 0.00 0.00 0.00 62 1011.0
20260905073521 66 335 2.0 11.0 0.00 0.00 0.00 62 1010.9
20260905073035 66 302 3.0 13.0 0.00 0.00 0.00 61 1010.9
20260905072519 66 336 5.0 13.0 0.00 0.00 0.00 61 1010.8
20260905072019 67 4 6.0 12.0 0.00 0.00 0.00 60 1010.7
20260905071517 67 337 5.0 12.0 0.00 0.00 0.00 60 1010.8
20260905071017 67 340 7.0 14.0 0.00 0.00 0.00 59 1010.8
20260905070518 67 305 7.0 14.0 0.00 0.00 0.00 58 1010.8
20260905070015 67 316 6.0 12.0 0.00 0.00 0.00 58 1010.7
20260905065516 67 334 5.0 16.0 0.00 0.00 0.00 58 1010.5
20260905065015 67 293 7.0 16.0 0.00 0.00 0.00 57 1010.6
20260905064515 68 348 3.0 12.0 0.00 0.00 0.00 57 1010.6
20260905064015 68 335 6.0 12.0 0.00 0.00 0.00 56 1010.5
20260905063514 68 310 6.0 11.0 0.00 0.00 0.00 56 1010.6
20260905063014 68 272 3.0 11.0 0.00 0.00 0.00 56 1010.6
20260905062514 68 288 3.0 11.0 0.00 0.00 0.00 56 1010.6
20260905062014 68 293 4.0 8.0 0.00 0.00 0.00 55 1010.6
20260905061515 68 335 2.0 11.0 0.00 0.00 0.00 55 1010.5
20260905061015 68 312 5.0 11.0 0.00 0.00 0.00 54 1010.5
20260905060514 68 308 3.0 13.0 0.00 0.00 0.00 54 1010.5
20260905060014 68 272 4.0 13.0 0.00 0.00 0.00 53 1010.5
20260905055513 69 315 5.0 14.0 0.00 0.00 0.00 53 1010.5
20260905055013 69 343 5.0 14.0 0.00 0.00 0.00 52 1010.5
20260905054515 69 312 4.0 12.0 0.00 0.00 0.00 52 1010.4
20260905054013 69 298 5.0 10.0 0.00 0.00 0.00 52 1010.5
20260905053513 69 337 2.0 10.0 0.00 0.00 0.00 52 1010.4
20260905053019 69 341 3.0 10.0 0.00 0.00 0.00 52 1010.4
20260905052511 69 322 3.0 9.0 0.00 0.00 0.00 51 1010.4
20260905052013 69 335 4.0 9.0 0.00 0.00 0.00 51 1010.4
20260905051512 69 342 5.0 10.0 0.00 0.00 0.00 51 1010.4
20260905051012 69 332 3.0 10.0 0.00 0.00 0.00 51 1010.4
20260905050512 70 330 3.0 10.0 0.00 0.00 0.00 50 1010.3
20260905050013 70 342 3.0 10.0 0.00 0.00 0.00 50 1010.3
20260905045512 70 270 4.0 10.0 0.00 0.00 0.00 50 1010.2
20260905045011 70 346 3.0 6.0 0.00 0.00 0.00 50 1010.3
20260905044516 70 310 2.0 11.0 0.00 0.00 0.00 49 1010.2
20260905044012 70 354 5.0 10.0 0.00 0.00 0.00 49 1010.2
20260905043511 71 328 3.0 9.0 0.00 0.00 0.00 48 1010.1
20260905043011 71 332 4.0 9.0 0.00 0.00 0.00 48 1010.1
20260905042513 71 322 5.0 10.0 0.00 0.00 0.00 47 1010.0
20260905042011 71 287 4.0 10.0 0.00 0.00 0.00 47 1009.9
20260905041511 72 323 4.0 8.0 0.00 0.00 0.00 47 1009.9
20260905041012 72 318 3.0 9.0 0.00 0.00 0.00 46 1009.7
20260905040510 72 332 4.0 9.0 0.00 0.00 0.00 45 1009.7
20260905040016 73 325 3.0 9.0 0.00 0.00 0.00 44 1009.6
20260905035510 73 312 3.0 9.0 0.00 0.00 0.00 43 1009.7
20260905035009 73 313 3.0 9.0 0.00 0.00 0.00 43 1009.6
20260905034512 73 270 2.0 8.0 0.00 0.00 0.00 42 1009.6
20260905034009 73 335 3.0 6.0 0.00 0.00 0.00 42 1009.5
20260905033510 74 332 3.0 5.0 0.00 0.00 0.00 42 1009.3
20260905033009 74 332 2.0 9.0 0.00 0.00 0.00 42 1009.2
20260905032513 74 354 3.0 9.0 0.00 0.00 0.00 42 1009.2
20260905032009 74 330 3.0 9.0 0.00 0.00 0.00 42 1009.1
20260905031512 74 330 3.0 9.0 0.00 0.00 0.00 43 1009.0
20260905031009 75 297 3.0 8.0 0.00 0.00 0.00 42 1009.0
20260905030510 75 312 3.0 8.0 0.00 0.00 0.00 42 1009.0
20260905030008 75 333 3.0 11.0 0.00 0.00 0.00 43 1008.9
20260905025511 75 320 5.0 11.0 0.00 0.00 0.00 42 1009.0
20260905025011 76 294 5.0 8.0 0.00 0.00 0.00 42 1008.9
20260905024508 76 325 2.0 8.0 0.00 0.00 0.00 42 1008.9
20260905024011 76 328 2.0 6.0 0.00 0.00 0.00 42 1008.9
20260905023508 77 343 2.0 8.0 0.00 0.00 0.00 42 1008.8
20260905023008 77 334 3.0 11.0 0.00 0.00 0.00 41 1008.8
20260905022506 77 343 3.0 11.0 0.00 0.00 0.00 41 1008.7
20260905022011 78 338 3.0 6.0 0.00 0.00 0.00 41 1008.8
20260905021508 78 316 3.0 8.0 0.00 0.00 0.00 40 1008.7
20260905021006 78 324 3.0 8.0 0.00 0.00 0.00 40 1008.8
20260905020507 79 344 3.0 9.0 0.00 0.00 0.00 39 1008.7
20260905020006 79 305 3.0 9.0 0.00 0.00 0.00 39 1008.7
20260905015506 79 318 3.0 8.0 0.00 0.00 0.00 39 1008.7
20260905015006 80 317 3.0 9.0 0.00 0.00 0.00 39 1008.7
20260905014506 80 349 3.0 9.0 0.00 0.00 0.00 39 1008.8
20260905014006 81 341 3.0 11.0 0.00 0.00 0.00 38 1008.7
20260905013507 81 8 3.0 11.0 0.00 0.00 0.00 38 1008.7
20260905013006 81 34 2.0 10.0 0.00 0.00 0.00 38 1008.7
20260905012506 82 324 3.0 5.0 0.00 0.00 0.00 38 1008.7
20260905012006 81 58 1.0 5.0 0.00 0.00 0.00 38 1008.7
20260905011506 81 354 1.0 9.0 0.00 0.00 0.00 39 1008.7
20260905011005 81 313 4.0 10.0 0.00 0.00 0.00 38 1008.7
20260905010505 81 330 4.0 10.0 0.00 0.00 0.00 38 1008.7
20260905010009 81 278 1.0 9.0 0.00 0.00 0.00 38 1008.7
20260905005504 82 8 4.0 9.0 0.00 0.00 0.00 37 1008.7
20260905005005 82 270 4.0 9.0 0.00 0.00 0.00 36 1008.7
20260905004507 83 291 2.0 6.0 0.00 0.00 0.00 36 1008.7
20260905004004 82 29 2.0 6.0 0.00 0.00 0.00 38 1008.7
20260905003504 82 287 4.0 7.0 0.00 0.00 0.00 37 1008.7
20260905003008 83 343 4.0 9.0 0.00 0.00 0.00 37 1008.7
20260905002502 83 328 1.0 9.0 0.00 0.00 0.00 37 1008.8
20260905002003 83 309 2.0 8.0 0.00 0.00 0.00 36 1008.7
20260905001503 83 276 4.0 8.0 0.00 0.00 0.00 37 1008.8
20260905001004 83 135 2.0 8.0 0.00 0.00 0.00 37 1008.8
20260905000503 82 345 3.0 9.0 0.00 0.00 0.00 37 1008.9
20260905000006 82 328 4.0 9.0 0.00 0.00 0.00 36 1009.0
20260904235501 82 293 1.0 6.0 0.00 0.00 0.00 37 1009.0
20260904235002 82 318 4.0 8.0 0.00 0.00 0.00 37 1008.9
20260904234502 82 31 3.0 9.0 0.00 0.00 0.00 37 1008.9
20260904234002 82 328 4.0 9.0 0.00 0.00 0.00 37 1009.0
20260904233502 82 320 2.0 6.0 0.00 0.00 0.00 37 1009.0
20260904233002 83 337 2.0 9.0 0.00 0.00 0.00 36 1009.0
20260904232601 82 354 3.0 9.0 0.00 0.00 0.00 38 1009.0
20260904232101 82 29 2.0 6.0 0.00 0.00 0.00 38 1009.0
20260904231601 82 337 3.0 9.0 0.00 0.00 0.00 38 1009.1
20260904231100 82 335 4.0 9.0 0.00 0.00 0.00 37 1009.1
20260904230600 83 281 2.0 7.0 0.00 0.00 0.00 37 1009.2
20260904230108 82 318 1.0 8.0 0.00 0.00 0.00 38 1009.2
20260904225600 81 264 4.0 8.0 0.00 0.00 0.00 38 1009.3
20260904225100 81 349 1.0 9.0 0.00 0.00 0.00 38 1009.3
20260904224559 81 256 1.0 9.0 0.00 0.00 0.00 38 1009.4
20260904224102 82 259 3.0 6.0 0.00 0.00 0.00 38 1009.4
20260904223601 81 305 1.0 10.0 0.00 0.00 0.00 38 1009.5
20260904223100 81 266 3.0 10.0 0.00 0.00 0.00 39 1009.7
20260904222559 82 313 2.0 5.0 0.00 0.00 0.00 37 1009.7
20260904222103 81 280 1.0 6.0 0.00 0.00 0.00 39 1009.7
20260904221556 80 268 2.0 8.0 0.00 0.00 0.00 39 1009.7
20260904221057 80 306 3.0 8.0 0.00 0.00 0.00 39 1009.8
20260904220554 80 326 3.0 10.0 0.00 0.00 0.00 42 1009.9
20260904220110 80 277 4.0 10.0 0.00 0.00 0.00 41 1009.8
20260904215555 79 324 3.0 9.0 0.00 0.00 0.00 42 1009.9
20260904215052 79 350 5.0 9.0 0.00 0.00 0.00 41 1010.0
20260904214552 79 324 2.0 6.0 0.00 0.00 0.00 44 1010.0
20260904214054 79 324 2.0 6.0 0.00 0.00 0.00 43 1010.1
20260904213551 78 9 1.0 5.0 0.00 0.00 0.00 44 1010.2
20260904213053 77 4 1.0 5.0 0.00 0.00 0.00 45 1010.2
20260904212551 77 316 1.0 5.0 0.00 0.00 0.00 44 1010.2
20260904212050 77 296 2.0 5.0 0.00 0.00 0.00 44 1010.2
20260904211606 78 313 3.0 5.0 0.00 0.00 0.00 44 1010.2
20260904211050 77 21 2.0 5.0 0.00 0.00 0.00 44 1010.3
20260904210548 77 4 2.0 8.0 0.00 0.00 0.00 45 1010.3
20260904210049 77 318 4.0 8.0 0.00 0.00 0.00 44 1010.3
20260904205548 77 101 2.0 7.0 0.00 0.00 0.00 45 1010.4
20260904205050 76 285 0.0 5.0 0.00 0.00 0.00 46 1010.4
20260904204548 75 322 1.0 6.0 0.00 0.00 0.00 47 1010.4
20260904204049 75 346 2.0 8.0 0.00 0.00 0.00 47 1010.5
20260904203547 75 272 3.0 8.0 0.00 0.00 0.00 47 1010.5
20260904203052 75 278 3.0 5.0 0.00 0.00 0.00 46 1010.5
20260904202547 75 335 3.0 8.0 0.00 0.00 0.00 46 1010.5
20260904202046 75 292 2.0 8.0 0.00 0.00 0.00 46 1010.5
20260904201546 75 308 3.0 11.0 0.00 0.00 0.00 45 1010.5
20260904201050 75 272 4.0 11.0 0.00 0.00 0.00 45 1010.5
20260904200546 76 283 4.0 8.0 0.00 0.00 0.00 43 1010.5
20260904200046 77 332 1.0 3.0 0.00 0.00 0.00 45 1010.4
20260904195547 75 151 1.0 7.0 0.00 0.00 0.00 47 1010.4
20260904195044 75 243 3.0 7.0 0.00 0.00 0.00 47 1010.6
20260904194547 75 342 3.0 5.0 0.00 0.00 0.00 49 1010.6
20260904194043 74 312 3.0 7.0 0.00 0.00 0.00 52 1010.6
20260904193545 74 345 1.0 10.0 0.00 0.00 0.00 54 1010.6
20260904193043 74 289 4.0 11.0 0.00 0.00 0.00 53 1010.7
20260904192542 74 318 5.0 11.0 0.00 0.00 0.00 53 1010.7
20260904192042 74 237 4.0 11.0 0.00 0.00 0.00 50 1010.7
20260904191547 76 285 5.0 9.0 0.00 0.00 0.00 49 1010.8
20260904191041 76 30 2.0 8.0 0.00 0.00 0.00 50 1010.8
20260904190540 75 324 3.0 8.0 0.00 0.00 0.00 53 1010.7
20260904190046 74 332 2.0 8.0 0.00 0.00 0.00 54 1010.8
20260904185538 75 297 3.0 8.0 0.00 0.00 0.00 54 1010.8
20260904185038 74 42 2.0 10.0 0.00 0.00 0.00 56 1010.9
20260904184548 73 298 6.0 10.0 0.00 0.00 0.00 56 1011.0
20260904184036 73 343 3.0 8.0 0.00 0.00 0.00 57 1011.0
20260904183535 73 347 2.0 6.0 0.00 0.00 0.00 59 1011.0
20260904183034 72 109 3.0 6.0 0.00 0.00 0.00 59 1011.0
20260904182533 72 231 1.0 6.0 0.00 0.00 0.00 60 1011.0
20260904182032 72 328 3.0 6.0 0.00 0.00 0.00 59 1011.0
20260904181531 72 24 2.0 8.0 0.00 0.00 0.00 60 1011.0
20260904181031 72 264 5.0 8.0 0.00 0.00 0.00 59 1011.0
20260904180531 72 330 2.0 6.0 0.00 0.00 0.00 60 1011.1
20260904180030 71 8 2.0 8.0 0.00 0.00 0.00 60 1011.1
20260904175530 71 256 2.0 8.0 0.00 0.00 0.00 61 1011.0
20260904175032 72 319 4.0 8.0 0.00 0.00 0.00 60 1011.1
20260904174531 72 322 2.0 8.0 0.00 0.00 0.00 60 1011.0
20260904174029 71 337 3.0 8.0 0.00 0.00 0.00 60 1011.0
20260904173529 71 322 3.0 10.0 0.00 0.00 0.00 62 1010.9
20260904173037 71 341 5.0 10.0 0.00 0.00 0.00 62 1010.9
20260904172525 70 335 3.0 8.0 0.00 0.00 0.00 62 1010.8
20260904172025 71 290 3.0 8.0 0.00 0.00 0.00 62 1010.8
20260904171526 70 326 2.0 6.0 0.00 0.00 0.00 63 1010.8
20260904171023 70 239 2.0 9.0 0.00 0.00 0.00 63 1010.8
20260904170522 70 315 2.0 9.0 0.00 0.00 0.00 62 1010.8
20260904170035 70 301 2.0 8.0 0.00 0.00 0.00 63 1010.8
20260904165522 70 331 4.0 8.0 0.00 0.00 0.00 63 1010.8
20260904165022 70 266 4.0 8.0 0.00 0.00 0.00 63 1010.8
20260904164521 69 309 3.0 6.0 0.00 0.00 0.00 64 1010.7
20260904164018 69 349 2.0 6.0 0.00 0.00 0.00 65 1010.8
20260904163518 68 340 3.0 9.0 0.00 0.00 0.00 65 1010.8
20260904163018 68 327 3.0 8.0 0.00 0.00 0.00 65 1010.8
20260904162520 68 293 3.0 9.0 0.00 0.00 0.00 65 1010.6
20260904162014 68 13 1.0 9.0 0.00 0.00 0.00 67 1010.7
20260904161513 68 326 2.0 8.0 0.00 0.00 0.00 67 1010.7
20260904161012 67 14 2.0 8.0 0.00 0.00 0.00 68 1010.6
20260904160511 67 325 4.0 9.0 0.00 0.00 0.00 68 1010.6
20260904160012 66 326 4.0 8.0 0.00 0.00 0.00 69 1010.6
20260904155509 66 269 3.0 8.0 0.00 0.00 0.00 69 1010.6
20260904155009 66 334 5.0 8.0 0.00 0.00 0.00 69 1010.5
20260904154508 66 341 4.0 8.0 0.00 0.00 0.00 69 1010.5
20260904154007 66 19 1.0 6.0 0.00 0.00 0.00 70 1010.5
20260904153507 66 328 3.0 6.0 0.00 0.00 0.00 70 1010.4
20260904153008 66 354 2.0 6.0 0.00 0.00 0.00 71 1010.4
20260904152508 66 330 2.0 6.0 0.00 0.00 0.00 71 1010.4
20260904152008 65 4 3.0 6.0 0.00 0.00 0.00 71 1010.4
20260904151506 65 280 2.0 6.0 0.00 0.00 0.00 72 1010.5
20260904151005 65 328 2.0 8.0 0.00 0.00 0.00 72 1010.4
20260904150507 65 326 2.0 10.0 0.00 0.00 0.00 73 1010.4
20260904150013 65 328 3.0 9.0 0.00 0.00 0.00 73 1010.3
20260904145503 64 354 3.0 10.0 0.00 0.00 0.00 73 1010.2
20260904145002 64 249 3.0 9.0 0.00 0.00 0.00 74 1010.2
20260904144501 64 329 2.0 9.0 0.00 0.00 0.00 75 1010.2
20260904144102 64 346 2.0 9.0 0.00 0.00 0.00 75 1010.1
20260904143600 64 335 3.0 8.0 0.00 0.00 0.00 76 1010.1
20260904143100 64 279 2.0 7.0 0.00 0.00 0.00 77 1010.0
20260904142558 64 332 1.0 5.0 0.00 0.00 0.00 77 1010.0
20260904142058 64 301 1.0 6.0 0.00 0.00 0.00 77 1010.0
20260904141556 64 276 3.0 9.0 0.00 0.00 0.00 77 1009.9
20260904141054 64 359 4.0 9.0 0.00 0.00 0.00 77 1009.9
20260904140553 63 308 4.0 9.0 0.00 0.00 0.00 78 1009.9
20260904140058 63 359 3.0 9.0 0.00 0.00 0.00 78 1009.9
20260904135551 63 344 1.0 9.0 0.00 0.00 0.00 79 1009.8
20260904135050 63 321 3.0 9.0 0.00 0.00 0.00 80 1009.8
20260904134552 63 314 3.0 9.0 0.00 0.00 0.00 80 1009.8
20260904134049 63 328 4.0 8.0 0.00 0.00 0.00 81 1009.7
20260904133551 63 303 3.0 10.0 0.00 0.00 0.00 82 1009.7
20260904133048 63 313 4.0 10.0 0.00 0.00 0.00 83 1009.7
20260904132548 63 304 3.0 8.0 0.00 0.00 0.00 83 1009.6
20260904132046 63 303 3.0 10.0 0.00 0.00 0.00 83 1009.6
20260904131546 63 328 3.0 10.0 0.00 0.00 0.00 83 1009.4
20260904131044 63 311 3.0 7.0 0.00 0.00 0.00 84 1009.4
20260904130545 63 286 3.0 7.0 0.00 0.00 0.00 84 1009.4
20260904130044 63 297 2.0 7.0 0.00 0.00 0.00 84 1009.3
20260904125543 63 302 3.0 8.0 0.00 0.00 0.00 84 1009.2
20260904125043 63 301 2.0 9.0 0.00 0.00 0.00 84 1009.2
20260904124542 63 273 2.0 7.0 0.00 0.00 0.00 84 1009.1
20260904124041 63 318 2.0 6.0 0.00 0.00 0.00 84 1009.1
20260904123546 63 334 2.0 8.0 0.00 0.00 0.00 85 1009.1
20260904123041 63 347 3.0 6.0 0.00 0.00 0.00 85 1009.0
20260904122540 63 335 2.0 7.0 0.00 0.00 0.00 85 1009.0
20260904122041 63 337 3.0 6.0 0.00 0.00 0.00 85 1008.9
20260904121540 63 308 2.0 6.0 0.00 0.00 0.00 86 1008.9
20260904121039 63 314 2.0 9.0 0.00 0.00 0.00 86 1009.0
20260904120539 63 340 4.0 9.0 0.00 0.00 0.00 86 1008.9
20260904120044 63 318 1.0 8.0 0.00 0.00 0.00 86 1008.9
20260904115538 63 341 2.0 8.0 0.00 0.00 0.00 86 1008.9
20260904115042 63 304 3.0 8.0 0.00 0.00 0.00 86 1009.0
20260904114543 63 334 2.0 6.0 0.00 0.00 0.00 86 1009.0
20260904114038 63 318 1.0 6.0 0.00 0.00 0.00 86 1008.9
20260904113538 63 328 2.0 8.0 0.00 0.00 0.00 86 1008.9
20260904113039 63 297 2.0 8.0 0.00 0.00 0.00 86 1009.0
20260904112537 63 337 3.0 6.0 0.00 0.00 0.00 86 1008.9
20260904112037 63 297 3.0 7.0 0.00 0.00 0.00 86 1008.9
20260904111536 63 300 2.0 8.0 0.00 0.00 0.00 86 1008.9
20260904111036 63 315 3.0 8.0 0.00 0.00 0.00 86 1008.9
20260904110538 63 339 3.0 8.0 0.00 0.00 0.00 86 1008.8
20260904110034 63 328 5.0 8.0 0.00 0.00 0.00 86 1008.7
20260904105538 64 301 2.0 8.0 0.00 0.00 0.00 86 1008.7
20260904105034 64 287 3.0 8.0 0.00 0.00 0.00 86 1008.7
20260904104534 64 337 3.0 8.0 0.00 0.00 0.00 86 1008.6
20260904104034 64 337 3.0 9.0 0.00 0.00 0.00 85 1008.7
20260904103534 64 253 3.0 9.0 0.00 0.00 0.00 85 1008.7
20260904103035 64 341 3.0 8.0 0.00 0.00 0.00 85 1008.7
20260904102532 64 321 3.0 9.0 0.00 0.00 0.00 85 1008.6
20260904102030 64 333 3.0 10.0 0.00 0.00 0.00 85 1008.6
20260904101529 64 281 2.0 9.0 0.00 0.00 0.00 84 1008.5
20260904101029 64 299 3.0 9.0 0.00 0.00 0.00 84 1008.5
20260904100527 64 339 3.0 6.0 0.00 0.00 0.00 84 1008.5
20260904100027 64 319 3.0 8.0 0.00 0.00 0.00 84 1008.4
20260904095525 64 284 3.0 8.0 0.00 0.00 0.00 83 1008.4
20260904095024 64 312 3.0 6.0 0.00 0.00 0.00 83 1008.5
20260904094537 64 341 3.0 6.0 0.00 0.00 0.00 83 1008.5